Regional Weather Roundup
Issued by NWS Northern Indiana

Home | Current Version | Previous Version | Graphics & Text | Print | Product List | Glossary On
Versions: 1 2 3 4 5 6 7 8 9 10 11 12 13 14 15 16 17 18 19 20 21 22 23 24 25 26 27 28 29 30 31 32 33 34 35 36 37 38 39 40 41 42 43 44 45 46 47 48 49 50
000
ASUS43 KIWX 282100
RWRIWX

KIWX WEATHER ROUNDUP
NATIONAL WEATHER SERVICE NORTHERN INDIANA
500 PM EDT FRI AUG 28 2015

NOTE: "FAIR" INDICATES FEW OR NO CLOUDS BELOW 12,000 FEET WITH NO
SIGNIFICANT WEATHER AND/OR OBSTRUCTIONS TO VISIBILITY.

* THESE STATIONS ARE NOT UNDER NWS QUALITY CONTROL. THEY ALSO MAY NOT
  REPORT WEATHER SUCH AS PRECIPITATION OR FOG.

INZ001>027-282200-
NORTHERN INDIANA

CITY           SKY/WX    TMP DP  RH WIND       PRES   REMARKS
GARY*          CLOUDY    75  57  53 VRB5      30.10F
KNOX*          CLOUDY    75  57  53 S5        30.11F
SOUTH BEND     CLOUDY    75  60  59 W5        30.12F
ELKHART*       CLOUDY    75  59  57 S5        30.13F
GOSHEN         CLOUDY    77  60  55 SW7       30.13F
MONTICELLO*    CLOUDY    76  60  57 S5        30.11F
WARSAW*        CLOUDY    75  59  57 SW3       30.13F
ANGOLA*        SUNNY     79  72  78 SW3       30.14F
FORT WAYNE     CLOUDY    77  57  50 SW3       30.15S

$$
INZ028>050-282200-
CENTRAL INDIANA

CITY           SKY/WX    TMP DP  RH WIND       PRES   REMARKS
LAFAYETTE      PTSUNNY   78  55  44 SE7       30.10F
KOKOMO*        CLOUDY    77  59  53 SE6       30.13F
MUNCIE*        CLOUDY    75  55  49 VRB7      30.14F
INDIANAPOLIS   PTSUNNY   77  54  44 E5        30.11F

$$
MIZ043>046-050>051-056>058-064>065-071>073-077>080-282200-
SOUTHWEST LOWER MICHIGAN

CITY           SKY/WX    TMP DP  RH WIND       PRES   REMARKS
BATTLE CREEK   CLOUDY    76  61  59 CALM      30.14F
BENTON HARBOR  CLOUDY    74  62  66 W5        30.11F
COLDWATER*     PTSUNNY   74  60  61 CALM      30.13F
HILLSDALE*     PTSUNNY   75  61  62 S5        30.15F
HOLLAND        CLOUDY    74  60  61 SW5       30.12F
GRAND RAPIDS   CLOUDY    75  59  57 W8        30.12F
KALAMAZOO      CLOUDY    76  58  53 SW7       30.13F
STURGIS*       CLOUDY    73  63  68 S5        30.13F
THREE RIVERS*  FAIR      76  60  58 CALM      30.13F

$$
OHZ001>008-015>018-024>025-282200-
NORTHWEST OHIO

CITY           SKY/WX    TMP DP  RH WIND       PRES   REMARKS
DEFIANCE       PTSUNNY   78  56  46 S6        30.15S
FINDLAY        PTSUNNY   78  56  46 CALM      30.14F
TOLEDO EXPRESS PTSUNNY   75  57  53 S3        30.14F
TOLEDO METCALF CLOUDY    77  54  44 SW5       30.15F
LIMA           PTSUNNY   76  56  49 SW7       30.15F

$$
AND FOR LAKE MICHIGAN COASTAL AND OPEN LAKE BUOY OBSERVATIONS

STATION/POSITION TEMP    WIND        PRES    VSBY  WAVE
                 AIR SEA DIR/SP/G                  HT/PER
                 (F)     (DEG/KT/KT) (MB)    (MI)  (FT/S)
MICHIGAN CITY     73     260/  4/  4   N/A
SAINT JOSEPH      72      CALM  /  1 1020.3F
SOUTH LAKE BUOY   68 69  170/  6/  8 1019.4F
4 MI NW BRIDGMAN  71 72   50/  2/  2   N/A           1
MICHIGAN CITY     72 72  300/  2/  2   N/A           0

$$
&&


USA.gov is the U.S. government's official web portal to all federal, state and local government web resources and services.